| time (UTC) | temp C | wind direction | speed KPH | gust KPH | rain 1hr cm | rain 24hr cm | rain mn cm | humidity % | barometer mb |
| 20260901014523 | 30 | 134 | 1.6 | 8.0 | 0.00 | 0.00 | 0.00 | 48 | 1009.1 |
| 20260901014023 | 30 | 186 | 1.6 | 9.7 | 0.00 | 0.00 | 0.00 | 47 | 1009.2 |
| 20260901013524 | 30 | 143 | 1.6 | 9.7 | 0.00 | 0.00 | 0.00 | 47 | 1009.1 |
| 20260901013029 | 30 | 161 | 1.6 | 8.0 | 0.00 | 0.00 | 0.00 | 46 | 1009.1 |
| 20260901012522 | 30 | 123 | 3.2 | 8.0 | 0.00 | 0.00 | 0.00 | 46 | 1009.0 |
| 20260901012021 | 30 | 128 | 0.0 | 6.4 | 0.00 | 0.00 | 0.00 | 46 | 1009.0 |
| 20260901011521 | 30 | 119 | 0.0 | 6.4 | 0.00 | 0.00 | 0.00 | 45 | 1008.9 |
| 20260901011021 | 30 | 124 | 1.6 | 9.7 | 0.00 | 0.00 | 0.00 | 45 | 1009.0 |
| 20260901010524 | 30 | 112 | 0.0 | 12.9 | 0.00 | 0.00 | 0.00 | 45 | 1009.0 |
| 20260901010027 | 30 | 88 | 1.6 | 12.9 | 0.00 | 0.00 | 0.00 | 45 | 1009.0 |
| 20260901005525 | 30 | 124 | 0.0 | 6.4 | 0.00 | 0.00 | 0.00 | 45 | 1009.0 |
| 20260901005021 | 31 | 139 | 0.0 | 8.0 | 0.00 | 0.00 | 0.00 | 45 | 1009.0 |
| 20260901004521 | 31 | 90 | 1.6 | 12.9 | 0.00 | 0.00 | 0.00 | 45 | 1009.0 |
| 20260901004020 | 31 | 70 | 1.6 | 12.9 | 0.00 | 0.00 | 0.00 | 44 | 1008.8 |
| 20260901003520 | 31 | 161 | 1.6 | 11.3 | 0.00 | 0.00 | 0.00 | 44 | 1008.8 |
| 20260901003030 | 31 | 69 | 3.2 | 9.7 | 0.00 | 0.00 | 0.00 | 44 | 1008.9 |
| 20260901002520 | 31 | 154 | 1.6 | 6.4 | 0.00 | 0.00 | 0.00 | 45 | 1008.9 |
| 20260901002020 | 31 | 88 | 3.2 | 12.9 | 0.00 | 0.00 | 0.00 | 45 | 1008.8 |
| 20260901001521 | 31 | 71 | 4.8 | 12.9 | 0.00 | 0.00 | 0.00 | 44 | 1008.8 |
| 20260901001019 | 31 | 111 | 3.2 | 9.7 | 0.00 | 0.00 | 0.00 | 44 | 1008.8 |
| 20260901000519 | 31 | 140 | 3.2 | 9.7 | 0.00 | 0.00 | 0.00 | 44 | 1008.9 |
| 20260901000019 | 31 | 146 | 1.6 | 9.7 | 0.00 | 0.00 | 0.00 | 44 | 1008.9 |
| 20260831235523 | 31 | 69 | 1.6 | 12.9 | 0.00 | 0.00 | 0.00 | 44 | 1009.0 |
| 20260831235019 | 31 | 78 | 4.8 | 12.9 | 0.00 | 0.00 | 0.00 | 43 | 1009.0 |
| 20260831234520 | 31 | 54 | 4.8 | 17.7 | 0.00 | 0.00 | 0.00 | 43 | 1009.0 |
| 20260831234020 | 32 | 163 | 1.6 | 17.7 | 0.00 | 0.00 | 0.00 | 43 | 1009.2 |
| 20260831233519 | 32 | 143 | 3.2 | 11.3 | 0.00 | 0.00 | 0.00 | 42 | 1009.3 |
| 20260831233018 | 32 | 167 | 0.0 | 11.3 | 0.00 | 0.00 | 0.00 | 43 | 1009.2 |
| 20260831232524 | 32 | 67 | 4.8 | 17.7 | 0.00 | 0.00 | 0.00 | 42 | 1009.2 |
| 20260831232018 | 32 | 78 | 6.4 | 17.7 | 0.00 | 0.00 | 0.00 | 41 | 1009.3 |
| 20260831231517 | 32 | 29 | 3.2 | 14.5 | 0.00 | 0.00 | 0.00 | 41 | 1009.4 |
| 20260831231018 | 31 | 36 | 1.6 | 17.7 | 0.00 | 0.00 | 0.00 | 43 | 1009.6 |
| 20260831230517 | 31 | 85 | 6.4 | 16.1 | 0.00 | 0.00 | 0.00 | 42 | 1009.6 |
| 20260831230017 | 31 | 50 | 8.0 | 16.1 | 0.00 | 0.00 | 0.00 | 42 | 1009.5 |
| 20260831225515 | 32 | 167 | 6.4 | 14.5 | 0.00 | 0.00 | 0.00 | 42 | 1009.5 |
| 20260831225014 | 31 | 110 | 1.6 | 16.1 | 0.00 | 0.00 | 0.00 | 45 | 1009.5 |
| 20260831224514 | 31 | 45 | 6.4 | 16.1 | 0.00 | 0.00 | 0.00 | 46 | 1009.7 |
| 20260831224013 | 31 | 115 | 4.8 | 19.3 | 0.00 | 0.00 | 0.00 | 45 | 1009.6 |
| 20260831223513 | 31 | 58 | 8.0 | 19.3 | 0.00 | 0.00 | 0.00 | 45 | 1009.8 |
| 20260831223013 | 31 | 115 | 4.8 | 14.5 | 0.00 | 0.00 | 0.00 | 45 | 1009.8 |
| 20260831222513 | 31 | 86 | 3.2 | 16.1 | 0.00 | 0.00 | 0.00 | 46 | 1009.7 |
| 20260831222011 | 31 | 49 | 6.4 | 16.1 | 0.00 | 0.00 | 0.00 | 46 | 1009.9 |
| 20260831221523 | 31 | 200 | 4.8 | 20.9 | 0.00 | 0.00 | 0.00 | 46 | 1010.0 |
| 20260831221015 | 31 | 73 | 9.7 | 20.9 | 0.00 | 0.00 | 0.00 | 45 | 1010.1 |
| 20260831220512 | 31 | 61 | 8.0 | 17.7 | 0.00 | 0.00 | 0.00 | 47 | 1010.3 |
| 20260831220011 | 31 | 90 | 8.0 | 20.9 | 0.00 | 0.00 | 0.00 | 46 | 1010.4 |
| 20260831215511 | 31 | 109 | 9.7 | 20.9 | 0.00 | 0.00 | 0.00 | 47 | 1010.4 |
| 20260831215011 | 31 | 208 | 6.4 | 14.5 | 0.00 | 0.00 | 0.00 | 50 | 1010.5 |
| 20260831214510 | 31 | 123 | 6.4 | 22.5 | 0.00 | 0.00 | 0.00 | 50 | 1010.6 |
| 20260831214011 | 31 | 116 | 8.0 | 22.5 | 0.00 | 0.00 | 0.00 | 50 | 1010.8 |
| 20260831213511 | 31 | 55 | 9.7 | 17.7 | 0.00 | 0.00 | 0.00 | 51 | 1010.9 |
| 20260831213012 | 31 | 127 | 4.8 | 14.5 | 0.00 | 0.00 | 0.00 | 50 | 1011.0 |
| 20260831212511 | 31 | 119 | 3.2 | 14.5 | 0.00 | 0.00 | 0.00 | 50 | 1011.1 |
| 20260831212010 | 30 | 92 | 6.4 | 20.9 | 0.00 | 0.00 | 0.00 | 50 | 1011.2 |
| 20260831211511 | 30 | 55 | 8.0 | 20.9 | 0.00 | 0.00 | 0.00 | 50 | 1011.3 |
| 20260831211009 | 31 | 60 | 3.2 | 16.1 | 0.00 | 0.00 | 0.00 | 50 | 1011.3 |
| 20260831210509 | 31 | 140 | 6.4 | 16.1 | 0.00 | 0.00 | 0.00 | 48 | 1011.4 |
| 20260831210009 | 31 | 188 | 3.2 | 16.1 | 0.00 | 0.00 | 0.00 | 48 | 1011.5 |
| 20260831205509 | 31 | 128 | 8.0 | 14.5 | 0.00 | 0.00 | 0.00 | 49 | 1011.6 |
| 20260831205009 | 31 | 134 | 4.8 | 14.5 | 0.00 | 0.00 | 0.00 | 49 | 1011.7 |
| 20260831204510 | 31 | 48 | 1.6 | 20.9 | 0.00 | 0.00 | 0.00 | 49 | 1011.8 |
| 20260831204009 | 31 | 136 | 8.0 | 20.9 | 0.00 | 0.00 | 0.00 | 49 | 1011.8 |
| 20260831203509 | 31 | 180 | 4.8 | 17.7 | 0.00 | 0.00 | 0.00 | 48 | 1011.8 |
| 20260831203009 | 31 | 111 | 3.2 | 14.5 | 0.00 | 0.00 | 0.00 | 49 | 1011.8 |
| 20260831202508 | 31 | 125 | 4.8 | 14.5 | 0.00 | 0.00 | 0.00 | 49 | 1011.8 |
| 20260831202006 | 30 | 172 | 1.6 | 14.5 | 0.00 | 0.00 | 0.00 | 50 | 1011.8 |
| 20260831201506 | 30 | 53 | 3.2 | 14.5 | 0.00 | 0.00 | 0.00 | 51 | 1011.8 |
| 20260831201006 | 30 | 125 | 4.8 | 14.5 | 0.00 | 0.00 | 0.00 | 50 | 1012.0 |
| 20260831200506 | 30 | 151 | 8.0 | 14.5 | 0.00 | 0.00 | 0.00 | 49 | 1012.0 |
| 20260831200005 | 30 | 69 | 8.0 | 17.7 | 0.00 | 0.00 | 0.00 | 49 | 1012.0 |
| 20260831195506 | 30 | 107 | 4.8 | 17.7 | 0.00 | 0.00 | 0.00 | 49 | 1012.1 |
| 20260831195006 | 30 | 100 | 3.2 | 16.1 | 0.00 | 0.00 | 0.00 | 48 | 1012.1 |
| 20260831194504 | 30 | 92 | 6.4 | 12.9 | 0.00 | 0.00 | 0.00 | 48 | 1012.1 |
| 20260831194006 | 30 | 96 | 4.8 | 19.3 | 0.00 | 0.00 | 0.00 | 48 | 1012.2 |
| 20260831193504 | 30 | 142 | 6.4 | 20.9 | 0.00 | 0.00 | 0.00 | 48 | 1012.2 |
| 20260831193004 | 30 | 113 | 3.2 | 11.3 | 0.00 | 0.00 | 0.00 | 49 | 1012.2 |
| 20260831192504 | 29 | 126 | 1.6 | 19.3 | 0.00 | 0.00 | 0.00 | 51 | 1012.3 |
| 20260831192004 | 29 | 114 | 4.8 | 16.1 | 0.00 | 0.00 | 0.00 | 53 | 1012.3 |
| 20260831191502 | 29 | 157 | 6.4 | 16.1 | 0.00 | 0.00 | 0.00 | 54 | 1012.4 |
| 20260831191002 | 28 | 90 | 4.8 | 16.1 | 0.00 | 0.00 | 0.00 | 55 | 1012.5 |
| 20260831190502 | 28 | 103 | 4.8 | 16.1 | 0.00 | 0.00 | 0.00 | 56 | 1012.6 |
| 20260831190004 | 28 | 103 | 4.8 | 16.1 | 0.00 | 0.00 | 0.00 | 55 | 1012.5 |
| 20260831185504 | 28 | 182 | 3.2 | 14.5 | 0.00 | 0.00 | 0.00 | 55 | 1012.5 |
| 20260831185002 | 28 | 212 | 3.2 | 11.3 | 0.00 | 0.00 | 0.00 | 55 | 1012.7 |
| 20260831184611 | 28 | 134 | 4.8 | 12.9 | 0.00 | 0.00 | 0.00 | 56 | 1012.7 |
| 20260831184100 | 28 | 126 | 1.6 | 16.1 | 0.00 | 0.00 | 0.00 | 58 | 1012.6 |
| 20260831183600 | 28 | 122 | 6.4 | 17.7 | 0.00 | 0.00 | 0.00 | 56 | 1012.7 |
| 20260831183101 | 28 | 119 | 3.2 | 12.9 | 0.00 | 0.00 | 0.00 | 54 | 1012.6 |
| 20260831182601 | 28 | 138 | 1.6 | 12.9 | 0.00 | 0.00 | 0.00 | 56 | 1012.7 |
| 20260831182100 | 28 | 87 | 1.6 | 12.9 | 0.00 | 0.00 | 0.00 | 56 | 1012.7 |
| 20260831181602 | 28 | 107 | 4.8 | 17.7 | 0.00 | 0.00 | 0.00 | 55 | 1012.7 |
| 20260831181059 | 28 | 82 | 4.8 | 9.7 | 0.00 | 0.00 | 0.00 | 57 | 1012.7 |
| 20260831180659 | 28 | 155 | 3.2 | 11.3 | 0.00 | 0.00 | 0.00 | 57 | 1012.8 |
| 20260831180059 | 28 | 143 | 4.8 | 12.9 | 0.00 | 0.00 | 0.00 | 56 | 1012.9 |
| 20260831175600 | 27 | 66 | 3.2 | 17.7 | 0.00 | 0.00 | 0.00 | 57 | 1013.0 |
| 20260831175058 | 27 | 75 | 8.0 | 17.7 | 0.00 | 0.00 | 0.00 | 58 | 1013.0 |
| 20260831174626 | 27 | 110 | 3.2 | 12.9 | 0.00 | 0.00 | 0.00 | 59 | 1013.0 |
| 20260831174057 | 27 | 61 | 1.6 | 16.1 | 0.00 | 0.00 | 0.00 | 60 | 1013.0 |
| 20260831173556 | 27 | 67 | 8.0 | 16.1 | 0.00 | 0.00 | 0.00 | 61 | 1013.1 |
| 20260831173055 | 27 | 70 | 6.4 | 14.5 | 0.00 | 0.00 | 0.00 | 61 | 1013.1 |
| 20260831172554 | 26 | 76 | 6.4 | 16.1 | 0.00 | 0.00 | 0.00 | 61 | 1013.1 |
| 20260831172053 | 26 | 97 | 9.7 | 14.5 | 0.00 | 0.00 | 0.00 | 61 | 1013.1 |
| 20260831171552 | 26 | 67 | 4.8 | 17.7 | 0.00 | 0.00 | 0.00 | 60 | 1013.1 |
| 20260831171052 | 26 | 87 | 8.0 | 20.9 | 0.00 | 0.00 | 0.00 | 60 | 1013.1 |
| 20260831170552 | 26 | 55 | 6.4 | 20.9 | 0.00 | 0.00 | 0.00 | 61 | 1013.1 |
| 20260831170056 | 26 | 65 | 6.4 | 16.1 | 0.00 | 0.00 | 0.00 | 60 | 1013.0 |
| 20260831165555 | 26 | 82 | 6.4 | 16.1 | 0.00 | 0.00 | 0.00 | 60 | 1013.0 |
| 20260831165054 | 26 | 76 | 4.8 | 17.7 | 0.00 | 0.00 | 0.00 | 61 | 1013.0 |
| 20260831164555 | 26 | 36 | 11.3 | 17.7 | 0.00 | 0.00 | 0.00 | 65 | 1013.0 |
| 20260831164050 | 26 | 82 | 9.7 | 17.7 | 0.00 | 0.00 | 0.00 | 65 | 1012.9 |
| 20260831163549 | 26 | 45 | 9.7 | 17.7 | 0.00 | 0.00 | 0.00 | 67 | 1013.0 |
| 20260831163048 | 26 | 62 | 6.4 | 16.1 | 0.00 | 0.00 | 0.00 | 67 | 1012.8 |
| 20260831162547 | 26 | 98 | 4.8 | 20.9 | 0.00 | 0.00 | 0.00 | 68 | 1012.7 |
| 20260831162045 | 26 | 88 | 11.3 | 20.9 | 0.00 | 0.00 | 0.00 | 68 | 1012.7 |
| 20260831161544 | 26 | 90 | 9.7 | 19.3 | 0.00 | 0.00 | 0.00 | 68 | 1012.8 |
| 20260831161043 | 26 | 42 | 4.8 | 19.3 | 0.00 | 0.00 | 0.00 | 68 | 1012.6 |
| 20260831160542 | 26 | 55 | 8.0 | 19.3 | 0.00 | 0.00 | 0.00 | 68 | 1012.4 |
| 20260831160043 | 26 | 59 | 6.4 | 17.7 | 0.00 | 0.00 | 0.00 | 68 | 1012.4 |
| 20260831155541 | 26 | 86 | 1.6 | 11.3 | 0.00 | 0.00 | 0.00 | 69 | 1012.4 |
| 20260831155041 | 26 | 50 | 0.0 | 9.7 | 0.00 | 0.00 | 0.00 | 69 | 1012.4 |
| 20260831154544 | 26 | 85 | 3.2 | 12.9 | 0.00 | 0.00 | 0.00 | 69 | 1012.2 |
| 20260831154039 | 26 | 78 | 1.6 | 12.9 | 0.00 | 0.00 | 0.00 | 69 | 1012.3 |
| 20260831153541 | 26 | 107 | 1.6 | 11.3 | 0.00 | 0.00 | 0.00 | 68 | 1012.2 |
| 20260831153050 | 26 | 86 | 3.2 | 17.7 | 0.00 | 0.00 | 0.00 | 68 | 1012.3 |
| 20260831152539 | 26 | 156 | 6.4 | 17.7 | 0.00 | 0.00 | 0.00 | 67 | 1012.3 |
| 20260831152037 | 26 | 165 | 4.8 | 19.3 | 0.00 | 0.00 | 0.00 | 67 | 1012.3 |
| 20260831151544 | 26 | 98 | 6.4 | 16.1 | 0.00 | 0.00 | 0.00 | 66 | 1012.2 |
| 20260831151037 | 26 | 88 | 8.0 | 16.1 | 0.00 | 0.00 | 0.00 | 65 | 1012.1 |
| 20260831150537 | 26 | 190 | 1.6 | 16.1 | 0.00 | 0.00 | 0.00 | 64 | 1012.1 |
| 20260831150033 | 26 | 123 | 6.4 | 16.1 | 0.00 | 0.00 | 0.00 | 64 | 1012.0 |
| 20260831145533 | 26 | 120 | 0.0 | 16.1 | 0.00 | 0.00 | 0.00 | 64 | 1011.9 |
| 20260831145032 | 26 | 136 | 3.2 | 16.1 | 0.00 | 0.00 | 0.00 | 63 | 1011.8 |
| 20260831144528 | 26 | 117 | 1.6 | 14.5 | 0.00 | 0.00 | 0.00 | 63 | 1011.5 |
| 20260831144028 | 26 | 135 | 1.6 | 14.5 | 0.00 | 0.00 | 0.00 | 63 | 1011.4 |
| 20260831143529 | 26 | 114 | 1.6 | 16.1 | 0.00 | 0.00 | 0.00 | 63 | 1011.3 |
| 20260831143024 | 27 | 86 | 1.6 | 14.5 | 0.00 | 0.00 | 0.00 | 62 | 1011.3 |
| 20260831142524 | 27 | 136 | 4.8 | 16.1 | 0.00 | 0.00 | 0.00 | 61 | 1011.1 |
| 20260831142024 | 27 | 150 | 6.4 | 16.1 | 0.00 | 0.00 | 0.00 | 59 | 1011.0 |
| 20260831141522 | 27 | 80 | 3.2 | 11.3 | 0.00 | 0.00 | 0.00 | 59 | 1010.8 |
| 20260831141020 | 27 | 42 | 1.6 | 8.0 | 0.00 | 0.00 | 0.00 | 59 | 1010.7 |
| 20260831140522 | 27 | 56 | 0.0 | 6.4 | 0.00 | 0.00 | 0.00 | 59 | 1010.5 |
| 20260831140017 | 27 | 75 | 1.6 | 8.0 | 0.00 | 0.00 | 0.00 | 59 | 1010.4 |
| 20260831135516 | 26 | 47 | 1.6 | 8.0 | 0.00 | 0.00 | 0.00 | 59 | 1010.2 |
| 20260831135015 | 26 | 57 | 1.6 | 4.8 | 0.00 | 0.00 | 0.00 | 58 | 1010.0 |
| 20260831134518 | 26 | 72 | 0.0 | 4.8 | 0.00 | 0.00 | 0.00 | 58 | 1009.9 |
| 20260831134013 | 26 | 51 | 0.0 | 3.2 | 0.00 | 0.00 | 0.00 | 58 | 1009.8 |
| 20260831133512 | 26 | 79 | 0.0 | 1.6 | 0.00 | 0.00 | 0.00 | 57 | 1009.7 |
| 20260831133014 | 26 | 79 | 0.0 | 3.2 | 0.00 | 0.00 | 0.00 | 57 | 1009.6 |
| 20260831132511 | 27 | 34 | 0.0 | 0.0 | 0.00 | 0.00 | 0.00 | 58 | 1009.4 |
| 20260831132010 | 27 | 34 | 0.0 | 3.2 | 0.00 | 0.00 | 0.00 | 58 | 1009.4 |
| 20260831131509 | 27 | 33 | 0.0 | 3.2 | 0.00 | 0.00 | 0.00 | 57 | 1009.3 |
| 20260831131011 | 27 | 147 | 0.0 | 3.2 | 0.00 | 0.00 | 0.00 | 56 | 1009.3 |
| 20260831130508 | 27 | 105 | 0.0 | 3.2 | 0.00 | 0.00 | 0.00 | 56 | 1009.3 |
| 20260831130009 | 27 | 63 | 0.0 | 0.0 | 0.00 | 0.00 | 0.00 | 58 | 1009.1 |
| 20260831125507 | 27 | 115 | 0.0 | 1.6 | 0.00 | 0.00 | 0.00 | 56 | 1009.1 |
| 20260831125007 | 27 | 115 | 0.0 | 3.2 | 0.00 | 0.00 | 0.00 | 56 | 1009.2 |
| 20260831124507 | 27 | 95 | 0.0 | 1.6 | 0.00 | 0.00 | 0.00 | 55 | 1009.1 |
| 20260831124005 | 27 | 78 | 0.0 | 3.2 | 0.00 | 0.00 | 0.00 | 55 | 1009.0 |
| 20260831123508 | 27 | 106 | 0.0 | 3.2 | 0.00 | 0.00 | 0.00 | 55 | 1009.0 |
| 20260831123007 | 27 | 143 | 0.0 | 3.2 | 0.00 | 0.00 | 0.00 | 54 | 1009.0 |
| 20260831122505 | 27 | 146 | 0.0 | 3.2 | 0.00 | 0.00 | 0.00 | 53 | 1008.9 |
| 20260831122005 | 27 | 175 | 0.0 | 4.8 | 0.00 | 0.00 | 0.00 | 52 | 1008.9 |
| 20260831121505 | 27 | 57 | 0.0 | 4.8 | 0.00 | 0.00 | 0.00 | 52 | 1009.0 |
| 20260831121003 | 27 | 56 | 0.0 | 4.8 | 0.00 | 0.00 | 0.00 | 51 | 1008.8 |
| 20260831120503 | 27 | 130 | 0.0 | 3.2 | 0.00 | 0.00 | 0.00 | 50 | 1008.9 |
| 20260831120002 | 27 | 51 | 0.0 | 4.8 | 0.00 | 0.00 | 0.00 | 51 | 1008.7 |
| 20260831115501 | 27 | 355 | 0.0 | 8.0 | 0.00 | 0.00 | 0.00 | 51 | 1008.5 |
| 20260831115000 | 27 | 355 | 1.6 | 8.0 | 0.00 | 0.00 | 0.00 | 51 | 1008.4 |
| 20260831114603 | 27 | 5 | 0.0 | 9.7 | 0.00 | 0.00 | 0.00 | 51 | 1008.4 |
| 20260831114100 | 27 | 57 | 4.8 | 9.7 | 0.00 | 0.00 | 0.00 | 50 | 1008.4 |
| 20260831113600 | 27 | 28 | 1.6 | 11.3 | 0.00 | 0.00 | 0.00 | 50 | 1008.4 |
| 20260831113108 | 27 | 15 | 1.6 | 11.3 | 0.00 | 0.00 | 0.00 | 51 | 1008.3 |
| 20260831113001 | 27 | 55 | 1.6 | 11.3 | 0.00 | 0.00 | 0.00 | 51 | 1008.3 |
| 20260831112559 | 27 | 338 | 3.2 | 11.3 | 0.00 | 0.00 | 0.00 | 51 | 1008.3 |
| 20260831112058 | 27 | 31 | 4.8 | 11.3 | 0.00 | 0.00 | 0.00 | 51 | 1008.1 |
| 20260831111557 | 26 | 42 | 1.6 | 11.3 | 0.00 | 0.00 | 0.00 | 52 | 1008.0 |
| 20260831111058 | 26 | 40 | 3.2 | 9.7 | 0.00 | 0.00 | 0.00 | 53 | 1008.0 |
| 20260831110557 | 26 | 46 | 4.8 | 9.7 | 0.00 | 0.00 | 0.00 | 54 | 1008.0 |
| 20260831110058 | 26 | 27 | 1.6 | 9.7 | 0.00 | 0.00 | 0.00 | 54 | 1007.9 |
| 20260831105559 | 26 | 348 | 3.2 | 11.3 | 0.00 | 0.00 | 0.00 | 55 | 1007.9 |
| 20260831105127 | 26 | 52 | 6.4 | 11.3 | 0.00 | 0.00 | 0.00 | 55 | 1007.8 |
| 20260831104600 | 26 | 5 | 4.8 | 9.7 | 0.00 | 0.00 | 0.00 | 55 | 1007.8 |
| 20260831104057 | 26 | 42 | 3.2 | 14.5 | 0.00 | 0.00 | 0.00 | 56 | 1007.9 |
| 20260831103557 | 26 | 42 | 4.8 | 14.5 | 0.00 | 0.00 | 0.00 | 57 | 1007.8 |
| 20260831103100 | 26 | 344 | 3.2 | 9.7 | 0.00 | 0.00 | 0.00 | 57 | 1007.7 |
| 20260831102556 | 26 | 19 | 3.2 | 9.7 | 0.00 | 0.00 | 0.00 | 57 | 1007.8 |
| 20260831102056 | 26 | 36 | 1.6 | 9.7 | 0.00 | 0.00 | 0.00 | 60 | 1007.8 |
| 20260831101555 | 26 | 5 | 4.8 | 9.7 | 0.00 | 0.00 | 0.00 | 60 | 1007.8 |
| 20260831101055 | 26 | 41 | 6.4 | 11.3 | 0.00 | 0.00 | 0.00 | 59 | 1007.8 |
| 20260831100554 | 26 | 49 | 6.4 | 11.3 | 0.00 | 0.00 | 0.00 | 59 | 1008.0 |
| 20260831100054 | 26 | 19 | 4.8 | 9.7 | 0.00 | 0.00 | 0.00 | 59 | 1008.1 |
| 20260831095553 | 26 | 19 | 3.2 | 9.7 | 0.00 | 0.00 | 0.00 | 59 | 1008.1 |
| 20260831095052 | 26 | 64 | 4.8 | 11.3 | 0.00 | 0.00 | 0.00 | 59 | 1008.1 |
| 20260831094602 | 26 | 57 | 3.2 | 11.3 | 0.00 | 0.00 | 0.00 | 59 | 1008.0 |
| 20260831094051 | 26 | 76 | 4.8 | 11.3 | 0.00 | 0.00 | 0.00 | 58 | 1008.1 |
| 20260831093550 | 27 | 92 | 1.6 | 9.7 | 0.00 | 0.00 | 0.00 | 57 | 1008.0 |
| 20260831093136 | 27 | 87 | 0.0 | 9.7 | 0.00 | 0.00 | 0.00 | 56 | 1008.0 |
| 20260831092548 | 27 | 105 | 3.2 | 11.3 | 0.00 | 0.00 | 0.00 | 55 | 1007.9 |
| 20260831092047 | 27 | 58 | 4.8 | 11.3 | 0.00 | 0.00 | 0.00 | 55 | 1007.8 |
| 20260831091550 | 27 | 65 | 3.2 | 11.3 | 0.00 | 0.00 | 0.00 | 54 | 1007.8 |
| 20260831091045 | 27 | 46 | 3.2 | 16.1 | 0.00 | 0.00 | 0.00 | 53 | 1007.8 |
| 20260831090544 | 27 | 59 | 3.2 | 16.1 | 0.00 | 0.00 | 0.00 | 53 | 1007.8 |
| 20260831090043 | 28 | 55 | 8.0 | 17.7 | 0.00 | 0.00 | 0.00 | 51 | 1007.7 |
| 20260831085541 | 28 | 45 | 8.0 | 19.3 | 0.00 | 0.00 | 0.00 | 48 | 1007.5 |
| 20260831085040 | 28 | 80 | 9.7 | 22.5 | 0.00 | 0.00 | 0.00 | 47 | 1007.4 |
| 20260831084625 | 28 | 69 | 14.5 | 27.4 | 0.00 | 0.00 | 0.00 | 45 | 1007.2 |
| 20260831084037 | 29 | 30 | 16.1 | 30.6 | 0.00 | 0.00 | 0.00 | 44 | 1007.1 |
| 20260831083537 | 29 | 28 | 16.1 | 30.6 | 0.00 | 0.00 | 0.00 | 43 | 1007.1 |
| 20260831083045 | 30 | 88 | 12.9 | 24.1 | 0.00 | 0.00 | 0.00 | 41 | 1006.9 |
| 20260831082537 | 30 | 40 | 17.7 | 24.1 | 0.00 | 0.00 | 0.00 | 40 | 1006.9 |
| 20260831082037 | 30 | 57 | 12.9 | 24.1 | 0.00 | 0.00 | 0.00 | 40 | 1006.8 |
| 20260831081537 | 30 | 26 | 9.7 | 22.5 | 0.00 | 0.00 | 0.00 | 41 | 1006.8 |
| 20260831081037 | 30 | 56 | 16.1 | 22.5 | 0.00 | 0.00 | 0.00 | 41 | 1006.8 |
| 20260831080535 | 30 | 40 | 12.9 | 27.4 | 0.00 | 0.00 | 0.00 | 41 | 1006.8 |
| 20260831080043 | 30 | 53 | 11.3 | 27.4 | 0.00 | 0.00 | 0.00 | 41 | 1006.9 |
| 20260831075535 | 30 | 35 | 11.3 | 29.0 | 0.00 | 0.00 | 0.00 | 41 | 1007.0 |
| 20260831075033 | 30 | 360 | 17.7 | 33.8 | 0.00 | 0.00 | 0.00 | 42 | 1007.1 |
| 20260831074543 | 30 | 40 | 17.7 | 30.6 | 0.00 | 0.00 | 0.00 | 43 | 1007.1 |
| 20260831074032 | 30 | 27 | 14.5 | 33.8 | 0.00 | 0.00 | 0.00 | 45 | 1007.2 |
| 20260831073531 | 29 | 63 | 16.1 | 33.8 | 0.00 | 0.00 | 0.00 | 45 | 1007.2 |
| 20260831073031 | 29 | 5 | 22.5 | 32.2 | 0.00 | 0.00 | 0.00 | 46 | 1007.2 |
| 20260831072529 | 29 | 5 | 17.7 | 35.4 | 0.00 | 0.00 | 0.00 | 47 | 1007.1 |
| 20260831072028 | 29 | 29 | 17.7 | 35.4 | 0.00 | 0.00 | 0.00 | 48 | 1007.2 |
| 20260831071536 | 29 | 24 | 17.7 | 30.6 | 0.00 | 0.00 | 0.00 | 48 | 1007.3 |
| 20260831071027 | 29 | 31 | 14.5 | 30.6 | 0.00 | 0.00 | 0.00 | 47 | 1007.3 |
| 20260831070525 | 30 | 59 | 16.1 | 27.4 | 0.00 | 0.00 | 0.00 | 47 | 1007.3 |
| 20260831070029 | 30 | 333 | 12.9 | 24.1 | 0.00 | 0.00 | 0.00 | 47 | 1007.2 |
| 20260831065526 | 30 | 360 | 11.3 | 29.0 | 0.00 | 0.00 | 0.00 | 46 | 1007.4 |
| 20260831065025 | 30 | 337 | 11.3 | 30.6 | 0.00 | 0.00 | 0.00 | 45 | 1007.5 |
| 20260831064527 | 30 | 355 | 17.7 | 30.6 | 0.00 | 0.00 | 0.00 | 46 | 1007.3 |
| 20260831064024 | 30 | 5 | 17.7 | 27.4 | 0.00 | 0.00 | 0.00 | 44 | 1007.4 |
| 20260831063523 | 30 | 360 | 12.9 | 30.6 | 0.00 | 0.00 | 0.00 | 46 | 1007.4 |
| 20260831063023 | 29 | 328 | 17.7 | 30.6 | 0.00 | 0.00 | 0.00 | 48 | 1007.5 |
| 20260831062524 | 28 | 325 | 16.1 | 30.6 | 0.00 | 0.00 | 0.00 | 51 | 1007.6 |
| 20260831062022 | 28 | 333 | 17.7 | 30.6 | 0.00 | 0.00 | 0.00 | 53 | 1007.7 |
| 20260831061521 | 28 | 5 | 12.9 | 30.6 | 0.00 | 0.00 | 0.00 | 55 | 1007.8 |
| 20260831061021 | 28 | 348 | 11.3 | 24.1 | 0.00 | 0.00 | 0.00 | 57 | 1007.9 |
| 20260831060518 | 29 | 13 | 9.7 | 19.3 | 0.00 | 0.00 | 0.00 | 54 | 1007.8 |
| 20260831060018 | 30 | 350 | 11.3 | 19.3 | 0.00 | 0.00 | 0.00 | 52 | 1008.0 |
| 20260831055518 | 30 | 338 | 8.0 | 19.3 | 0.00 | 0.00 | 0.00 | 50 | 1008.2 |
| 20260831055018 | 30 | 343 | 6.4 | 19.3 | 0.00 | 0.00 | 0.00 | 50 | 1008.4 |
| 20260831054521 | 30 | 326 | 3.2 | 12.9 | 0.00 | 0.00 | 0.00 | 50 | 1008.6 |
| 20260831054018 | 29 | 344 | 8.0 | 19.3 | 0.00 | 0.00 | 0.00 | 50 | 1008.7 |
| 20260831053519 | 29 | 17 | 8.0 | 20.9 | 0.00 | 0.00 | 0.00 | 51 | 1008.7 |
| 20260831053018 | 29 | 349 | 8.0 | 20.9 | 0.00 | 0.00 | 0.00 | 52 | 1008.8 |
| 20260831052517 | 29 | 325 | 9.7 | 22.5 | 0.00 | 0.00 | 0.00 | 52 | 1008.8 |
| 20260831052017 | 28 | 341 | 12.9 | 22.5 | 0.00 | 0.00 | 0.00 | 52 | 1008.6 |
| 20260831051526 | 28 | 327 | 11.3 | 17.7 | 0.00 | 0.00 | 0.00 | 54 | 1008.4 |
| 20260831051015 | 30 | 334 | 4.8 | 12.9 | 0.00 | 0.00 | 0.00 | 52 | 1008.4 |
| 20260831050520 | 30 | 51 | 0.0 | 17.7 | 0.00 | 0.00 | 0.00 | 51 | 1008.5 |
| 20260831050015 | 31 | 72 | 3.2 | 16.1 | 0.00 | 0.00 | 0.00 | 47 | 1008.3 |
| 20260831045518 | 31 | 207 | 1.6 | 20.9 | 0.00 | 0.00 | 0.00 | 45 | 1008.0 |
| 20260831045014 | 31 | 213 | 3.2 | 20.9 | 0.00 | 0.00 | 0.00 | 42 | 1007.6 |
| 20260831044517 | 32 | 218 | 6.4 | 20.9 | 0.00 | 0.00 | 0.00 | 43 | 1007.4 |
| 20260831044014 | 32 | 229 | 6.4 | 16.1 | 0.00 | 0.00 | 0.00 | 44 | 1007.0 |
| 20260831043514 | 32 | 233 | 1.6 | 17.7 | 0.00 | 0.00 | 0.00 | 43 | 1006.7 |
| 20260831043014 | 32 | 254 | 4.8 | 25.7 | 0.00 | 0.00 | 0.00 | 42 | 1006.7 |
| 20260831042514 | 33 | 203 | 4.8 | 25.7 | 0.00 | 0.00 | 0.00 | 41 | 1006.7 |
| 20260831042014 | 33 | 209 | 3.2 | 24.1 | 0.00 | 0.00 | 0.00 | 40 | 1006.7 |
| 20260831041516 | 33 | 204 | 4.8 | 16.1 | 0.00 | 0.00 | 0.00 | 39 | 1006.7 |
| 20260831041013 | 34 | 221 | 6.4 | 17.7 | 0.00 | 0.00 | 0.00 | 39 | 1006.2 |
| 20260831040515 | 34 | 153 | 6.4 | 17.7 | 0.00 | 0.00 | 0.00 | 38 | 1006.1 |
| 20260831040021 | 35 | 196 | 6.4 | 25.7 | 0.00 | 0.00 | 0.00 | 37 | 1006.0 |
| 20260831035512 | 36 | 259 | 9.7 | 25.7 | 0.00 | 0.00 | 0.00 | 36 | 1005.8 |
| 20260831035012 | 36 | 225 | 4.8 | 11.3 | 0.00 | 0.00 | 0.00 | 33 | 1005.6 |
| 20260831034512 | 36 | 211 | 1.6 | 8.0 | 0.00 | 0.00 | 0.00 | 33 | 1005.0 |
| 20260831034012 | 36 | 205 | 0.0 | 8.0 | 0.00 | 0.00 | 0.00 | 33 | 1004.8 |
| 20260831033512 | 36 | 273 | 1.6 | 8.0 | 0.00 | 0.00 | 0.00 | 33 | 1004.8 |
| 20260831033012 | 36 | 268 | 1.6 | 12.9 | 0.00 | 0.00 | 0.00 | 33 | 1004.8 |
| 20260831032512 | 36 | 187 | 0.0 | 12.9 | 0.00 | 0.00 | 0.00 | 33 | 1004.8 |
| 20260831032011 | 37 | 310 | 0.0 | 4.8 | 0.00 | 0.00 | 0.00 | 33 | 1005.0 |
| 20260831031511 | 37 | 194 | 1.6 | 6.4 | 0.00 | 0.00 | 0.00 | 33 | 1005.1 |
| 20260831031010 | 37 | 250 | 0.0 | 6.4 | 0.00 | 0.00 | 0.00 | 32 | 1005.1 |
| 20260831030511 | 37 | 228 | 0.0 | 4.8 | 0.00 | 0.00 | 0.00 | 32 | 1005.0 |
| 20260831030010 | 37 | 234 | 0.0 | 4.8 | 0.00 | 0.00 | 0.00 | 32 | 1004.9 |
| 20260831025511 | 37 | 238 | 0.0 | 4.8 | 0.00 | 0.00 | 0.00 | 32 | 1004.6 |
| 20260831025011 | 37 | 243 | 0.0 | 6.4 | 0.00 | 0.00 | 0.00 | 32 | 1004.5 |
| 20260831024510 | 37 | 224 | 1.6 | 4.8 | 0.00 | 0.00 | 0.00 | 31 | 1004.4 |
| 20260831024010 | 37 | 244 | 0.0 | 8.0 | 0.00 | 0.00 | 0.00 | 31 | 1004.4 |
| 20260831023512 | 37 | 230 | 1.6 | 8.0 | 0.00 | 0.00 | 0.00 | 30 | 1004.4 |
| 20260831023009 | 37 | 201 | 0.0 | 6.4 | 0.00 | 0.00 | 0.00 | 30 | 1004.3 |
| 20260831022509 | 37 | 196 | 0.0 | 6.4 | 0.00 | 0.00 | 0.00 | 30 | 1004.3 |
| 20260831022009 | 37 | 197 | 0.0 | 4.8 | 0.00 | 0.00 | 0.00 | 30 | 1004.2 |
| 20260831021509 | 37 | 197 | 0.0 | 8.0 | 0.00 | 0.00 | 0.00 | 29 | 1004.1 |
| 20260831021009 | 37 | 239 | 3.2 | 8.0 | 0.00 | 0.00 | 0.00 | 29 | 1004.0 |
| 20260831020510 | 37 | 234 | 1.6 | 9.7 | 0.00 | 0.00 | 0.00 | 29 | 1003.9 |
| 20260831020009 | 37 | 257 | 1.6 | 9.7 | 0.00 | 0.00 | 0.00 | 29 | 1003.9 |
| 20260831015508 | 37 | 219 | 0.0 | 9.7 | 0.00 | 0.00 | 0.00 | 29 | 1003.8 |
| 20260831015008 | 38 | 223 | 3.2 | 9.7 | 0.00 | 0.00 | 0.00 | 28 | 1003.7 |